Change the Weather History Date:

Saturday, November 16, 2013

  Actual Average Record
Temperature  
Mean Temperature 44 °F -  
Max Temperature 52 °F 52 °F 73 °F (1999)
Min Temperature 37 °F 19 °F 7 °F (1973)
Degree Days  
Heating Degree Days 20    
Moisture  
Dew Point 35 °F    
Average Humidity 78    
Maximum Humidity 97    
Minimum Humidity 50    
Precipitation  
Precipitation 0.12 in - - ()
Sea Level Pressure  
Sea Level Pressure 29.72 in    
Wind  
Wind Speed 17 mph (SW)    
Max Wind Speed 32 mph    
Max Gust Speed 46 mph    
Visibility 10 miles    
Events Rain    
Averages and records for this station are not official NWS values.
T = Trace of Precipitation, MM = Missing Value Source: NWS Daily Summary

Daily Weather History Graph

Daily Weather History Graph

Search for Another Location

Airport or City:

Trip Planner

Search our weather history database for the weather conditions in past years. The results will help you decide how hot, cold, wet, or windy it might be!

Date:

Astronomy

Nov. 16, 2013 Rise Set
Actual Time 6:51 AM MST 5:07 PM MST
Civil Twilight 6:24 AM MST 5:34 PM MST
Nautical Twilight 5:53 AM MST 6:05 PM MST
Astronomical Twilight 5:23 AM MST 6:35 PM MST
Moon 4:43 PM MST (11/16) 5:53 AM MST (11/16)
Length of Visible Light 11h 10m
Length of Day
10h 15m
Waxing Gibbous, 99% of the Moon is Illuminated
Nov 16
Waxing Gibbous
Nov 17
Full
Nov 25
Last Quarter
Dec 2
New
Dec 9
First Quarter

Hourly Weather History & Observations

Time (MST) Temp. Windchill Dew Point Humidity Pressure Visibility Wind Dir Wind Speed Gust Speed Precip Events Conditions
12:21 AM 41.0 °F 32.5 °F 37.0 °F 86% 29.80 in 10.0 mi SW 17.3 mph 32.2 mph 0.05 in Rain Light Rain
12:53 AM 41.0 °F 32.5 °F 37.0 °F 86% 29.60 in 10.0 mi West 17.3 mph 32.2 mph 0.06 in Rain Rain
1:39 AM 39.9 °F 30.0 °F 36.0 °F 86% 29.78 in 8.0 mi West 21.9 mph 31.1 mph 0.02 in Rain Light Rain
1:46 AM 39.9 °F 30.8 °F 36.0 °F 86% 29.79 in 10.0 mi West 18.4 mph - 0.02 in Rain Light Rain
1:53 AM 39.9 °F 30.8 °F 36.0 °F 86% 29.60 in 10.0 mi West 18.4 mph 24.2 mph 0.02 in Rain Light Rain
2:24 AM 39.0 °F 30.6 °F 36.0 °F 89% 29.80 in 8.0 mi SW 15.0 mph 23.0 mph 0.03 in Rain Light Rain
2:31 AM 39.0 °F 30.3 °F 36.0 °F 89% 29.80 in 10.0 mi WSW 16.1 mph - 0.03 in Rain Light Rain
2:53 AM 39.0 °F 30.3 °F 36.0 °F 89% 29.59 in 10.0 mi SW 16.1 mph 24.2 mph 0.03 in   Overcast
3:53 AM 39.0 °F 31.8 °F 37.0 °F 93% 29.60 in 10.0 mi SW 11.5 mph - N/A   Scattered Clouds
4:53 AM 37.0 °F 32.4 °F 36.0 °F 96% 29.62 in 10.0 mi SSW 5.8 mph - N/A   Mostly Cloudy
5:00 AM 37.0 °F 31.0 °F 36.0 °F 96% 29.80 in 10.0 mi SSW 8.1 mph - N/A   Mostly Cloudy
5:12 AM 37.9 °F 33.5 °F 36.0 °F 93% 29.80 in 10.0 mi SW 5.8 mph - N/A   Mostly Cloudy
5:22 AM 37.9 °F 32.1 °F 37.0 °F 97% 29.80 in 10.0 mi SW 8.1 mph - N/A   Mostly Cloudy
5:53 AM 39.9 °F 33.9 °F 37.0 °F 89% 29.62 in 10.0 mi SW 9.2 mph - N/A   Overcast
6:05 AM 41.0 °F 34.3 °F 37.9 °F 89% 29.80 in 10.0 mi SW 11.5 mph - N/A   Overcast
6:21 AM 41.0 °F 35.2 °F 37.9 °F 89% 29.81 in 10.0 mi SW 9.2 mph - N/A   Overcast
6:53 AM 41.0 °F 34.3 °F 37.9 °F 89% 29.64 in 10.0 mi SW 11.5 mph - 0.01 in Rain Light Rain
7:19 AM 41.0 °F 32.5 °F 37.9 °F 89% 29.81 in 10.0 mi SW 17.3 mph - 0.00 in   Mostly Cloudy
7:53 AM 42.1 °F 35.2 °F 37.9 °F 85% 29.66 in 10.0 mi SW 12.7 mph - 0.00 in Rain Light Rain
8:53 AM 43.0 °F 35.4 °F 37.9 °F 82% 29.66 in 10.0 mi SW 16.1 mph 26.5 mph 0.00 in   Overcast
9:53 AM 43.0 °F 34.5 °F 37.9 °F 82% 29.72 in 9.0 mi WSW 19.6 mph 29.9 mph 0.00 in Rain Light Rain
10:01 AM 44.1 °F 36.2 °F 39.0 °F 82% 29.85 in 10.0 mi SW 18.4 mph - 0.00 in   Overcast
10:13 AM 45.0 °F 36.4 °F 39.0 °F 80% 29.85 in 10.0 mi WSW 23.0 mph 33.4 mph 0.00 in   Overcast
10:53 AM 46.9 °F - 37.9 °F 71% 29.69 in 10.0 mi WSW 24.2 mph 33.4 mph 0.00 in   Mostly Cloudy
11:53 AM 48.9 °F - 36.0 °F 61% 29.64 in 10.0 mi SW 26.5 mph 33.4 mph N/A   Overcast
12:53 PM 50.0 °F - 34.0 °F 54% 29.60 in 10.0 mi SW 32.2 mph 43.7 mph N/A   Mostly Cloudy
1:53 PM 52.0 °F - 34.0 °F 50% 29.56 in 10.0 mi SW 28.8 mph 46.0 mph N/A   Partly Cloudy
2:53 PM 51.1 °F - 33.1 °F 50% 29.57 in 10.0 mi WSW 31.1 mph 41.4 mph N/A   Partly Cloudy
3:53 PM 48.9 °F - 32.0 °F 52% 29.60 in 10.0 mi WSW 26.5 mph 36.8 mph N/A   Scattered Clouds
4:53 PM 48.0 °F - 32.0 °F 54% 29.62 in 10.0 mi WSW 27.6 mph 36.8 mph N/A   Mostly Cloudy
5:53 PM 46.9 °F - 32.0 °F 56% 29.63 in 10.0 mi WSW 27.6 mph 38.0 mph N/A   Partly Cloudy
6:53 PM 44.1 °F 35.9 °F 32.0 °F 63% 29.70 in 10.0 mi WSW 19.6 mph - N/A   Partly Cloudy
7:53 PM 43.0 °F 33.5 °F 32.0 °F 65% 29.72 in 10.0 mi WSW 24.2 mph 36.8 mph N/A   Clear
8:53 PM 42.1 °F 33.3 °F 30.9 °F 65% 29.74 in 10.0 mi SW 19.6 mph 33.4 mph N/A   Clear
9:53 PM 41.0 °F 33.9 °F 32.0 °F 70% 29.80 in 10.0 mi SW 12.7 mph - N/A   Mostly Cloudy
10:53 PM 39.9 °F 33.9 °F 32.0 °F 73% 29.79 in 10.0 mi WSW 9.2 mph - N/A   Mostly Cloudy
11:18 PM 39.0 °F 31.0 °F 32.0 °F 76% 29.93 in 10.0 mi WSW 13.8 mph 21.9 mph N/A   Mostly Cloudy
11:30 PM 39.0 °F 31.8 °F 32.0 °F 76% 29.93 in 10.0 mi WSW 11.5 mph - N/A   Partly Cloudy
11:53 PM 39.0 °F 29.6 °F 32.0 °F 76% 29.79 in 10.0 mi SW 18.4 mph 25.3 mph N/A   Clear